User: anonymous   Login
Location: Congrier
(47.8099°N, 1.1170°W)
Time: 15:07:54
(UTC+00:00)
Language:

Meteor 1-27 - Orbit

View from above orbital plane
View from above orbital plane
View from above satellite
View from above satellite

Ground track
Ground track

The orbit data is extracted from the following two-line orbital elements,

1  9903U 77024A   23160.86402037  .00000212  00000-0  11599-3 0  9996
2  9903  81.2714 125.3768 0036376 242.6106 117.1362 14.08470521372436
Epoch (UTC): 09 June 2023 20:44:11
Eccentricity: 0.0036376
inclination: 81.2714°
perigee height: 838 km
apogee height: 891 km
right ascension of ascending node: 125.3768°
argument of perigee: 242.6106°
revolutions per day: 14.08470521
mean anomaly at epoch: 117.1362°
orbit number at epoch: 37243

The dashed part of the orbit path shows where the satellite is in the earth's shadow,  

DLR